Weather in Megrino

Russia / Vologda Oblast     59°08′53″N   35°35′02″E
temp.,
°C
wind,
m/s
gust,
m/s
humid.,
%
clouds,
%
prec.,
mm/h
press.,
hPa
HPBL,
m
11 may, tue
tue1100:00+7s2976100 0.0 1027167
03:00+7s277694 0.0 1028139
06:00+8s2773100 0.0 1029172
09:00+14s35475 0.0 1029488
12:00+19ssw343810 0.0 10281126
15:00+21s34375 0.0 10271294
18:00+20sse34465 0.0 10271069
21:00+12sse23751 0.0 102753
12 may, wed
wed1200:00+9sse25860 0.0 102889
03:00+8sse22890 0.0 102920
06:00+10se13795 0.0 102981
09:00+17se22530 0.0 1028454
12:00+21se33450 0.0 10271073
15:00+23ese33420 0.0 10251536
18:00+22e35490 0.0 10231454
21:00+15e39786 0.0 1023155
13 may, thu
thu1300:00+14ese312845 0.0 1023301
03:00+12se310945 0.0 1023282
06:00+13se27905 0.0 1023385
09:00+17se37556 0.0 1022804
12:00+20se585480 0.1 10201579
15:00+19se596781 1.5 10181438
18:00+16sse4988100 3.9 1017595
21:00+13ese2797100 9.2 1017316
14 may, fri
fri1400:00+12sse269790 0.0 1017270
03:00+10sse229991 0.0 101757
06:00+11s1296100 0.0 101791
09:00+15ssw2380100 0.0 1016495
12:00+19s34493 0.0 10151600
15:00+21s45375 0.0 10152084
18:00+20sse3649100 0.0 1014945
21:00+14se298398 0.0 1014188
15 may, sat
sat1500:00+12sse269170 0.0 1013123
03:00+11ese259624 0.0 1013109
06:00+13ese389038 0.0 1012245
09:00+18ese4771100 0.2 1010673
12:00+19sse4672100 0.1 1009998
15:00+20s3470100 0.5 1008898
18:00
21:00+15sw2791100 1.3 1006221